owner,sensor,date,latitude,longitude,vertical_datum,sea_water_practical_salinity,qcFlag 
DISL,ioos:station:DISL:KATA:1,2014-10-01T00:00:00Z,30.2583,-88.2131,4.142,23.92,1111122 
DISL,ioos:station:DISL:KATA:1,2014-10-01T00:30:00Z,30.2583,-88.2131,4.161,23.87,1111122 
DISL,ioos:station:DISL:KATA:1,2014-10-01T01:00:00Z,30.2583,-88.2131,4.179,23.97,1111122 
DISL,ioos:station:DISL:KATA:1,2014-10-01T01:30:00Z,30.2583,-88.2131,4.198,24.04,1111122 
DISL,ioos:station:DISL:KATA:1,2014-10-01T02:00:00Z,30.2583,-88.2131,4.212,24.16,1111122 
DISL,ioos:station:DISL:KATA:1,2014-10-01T02:30:00Z,30.2583,-88.2131,4.235,24.22,1111122 
DISL,ioos:station:DISL:KATA:1,2014-10-01T03:00:00Z,30.2583,-88.2131,4.254,24.41,1111122 
DISL,ioos:station:DISL:KATA:1,2014-10-01T03:30:00Z,30.2583,-88.2131,4.285,24.46,1111122 
DISL,ioos:station:DISL:KATA:1,2014-10-01T04:00:00Z,30.2583,-88.2131,4.309,24.82,1111122 
DISL,ioos:station:DISL:KATA:1,2014-10-01T04:30:00Z,30.2583,-88.2131,4.337,25.14,1111122 
DISL,ioos:station:DISL:KATA:1,2014-10-01T05:00:00Z,30.2583,-88.2131,4.349,25.56,1111122 
DISL,ioos:station:DISL:KATA:1,2014-10-01T05:30:00Z,30.2583,-88.2131,4.367,25.71,1111122 
DISL,ioos:station:DISL:KATA:1,2014-10-01T06:00:00Z,30.2583,-88.2131,4.387,25.84,1111122 
DISL,ioos:station:DISL:KATA:1,2014-10-01T06:30:00Z,30.2583,-88.2131,4.398,26.01,1111122 
DISL,ioos:station:DISL:KATA:1,2014-10-01T07:00:00Z,30.2583,-88.2131,4.397,26.07,1111122 
DISL,ioos:station:DISL:KATA:1,2014-10-01T07:30:00Z,30.2583,-88.2131,4.403,26.16,1111122 
DISL,ioos:station:DISL:KATA:1,2014-10-01T08:00:00Z,30.2583,-88.2131,4.404,26.23,1111122 
DISL,ioos:station:DISL:KATA:1,2014-10-01T08:30:00Z,30.2583,-88.2131,4.399,26.23,1111122 
DISL,ioos:station:DISL:KATA:1,2014-10-01T09:00:00Z,30.2583,-88.2131,4.387,26.27,1111122 
DISL,ioos:station:DISL:KATA:1,2014-10-01T09:30:00Z,30.2583,-88.2131,4.357,26.32,1111122 
DISL,ioos:station:DISL:KATA:1,2014-10-01T10:00:00Z,30.2583,-88.2131,4.334,26.36,1111122 
DISL,ioos:station:DISL:KATA:1,2014-10-01T10:30:00Z,30.2583,-88.2131,4.317,26.39,1111122 
DISL,ioos:station:DISL:KATA:1,2014-10-01T11:00:00Z,30.2583,-88.2131,4.3,26.36,1111122 
DISL,ioos:station:DISL:KATA:1,2014-10-01T11:30:00Z,30.2583,-88.2131,4.278,26.36,1111122 
DISL,ioos:station:DISL:KATA:1,2014-10-01T12:00:00Z,30.2583,-88.2131,4.247,26.29,1111122 
DISL,ioos:station:DISL:KATA:1,2014-10-01T12:30:00Z,30.2583,-88.2131,4.216,26.26,1111122 
DISL,ioos:station:DISL:KATA:1,2014-10-01T13:00:00Z,30.2583,-88.2131,4.175,26.18,1111122 
DISL,ioos:station:DISL:KATA:1,2014-10-01T13:30:00Z,30.2583,-88.2131,4.13,26.11,1111122 
DISL,ioos:station:DISL:KATA:1,2014-10-01T14:00:00Z,30.2583,-88.2131,4.084,25.89,1111122 
DISL,ioos:station:DISL:KATA:1,2014-10-01T14:30:00Z,30.2583,-88.2131,4.041,25.83,1111122 
DISL,ioos:station:DISL:KATA:1,2014-10-01T15:00:00Z,30.2583,-88.2131,4.01,25.83,1111122 
DISL,ioos:station:DISL:KATA:1,2014-10-01T15:30:00Z,30.2583,-88.2131,3.976,25.82,1111122 
DISL,ioos:station:DISL:KATA:1,2014-10-01T16:00:00Z,30.2583,-88.2131,3.954,25.94,1111122 
DISL,ioos:station:DISL:KATA:1,2014-10-01T16:30:00Z,30.2583,-88.2131,3.941,26.01,1111122 
DISL,ioos:station:DISL:KATA:1,2014-10-01T17:00:00Z,30.2583,-88.2131,3.938,26.1,1111122 
DISL,ioos:station:DISL:KATA:1,2014-10-01T17:30:00Z,30.2583,-88.2131,3.938,26.1,1111122 
DISL,ioos:station:DISL:KATA:1,2014-10-01T18:00:00Z,30.2583,-88.2131,3.932,26.11,1111122 
DISL,ioos:station:DISL:KATA:1,2014-10-01T18:30:00Z,30.2583,-88.2131,3.922,25.9,1111122 
DISL,ioos:station:DISL:KATA:1,2014-10-01T19:00:00Z,30.2583,-88.2131,3.923,26.03,1111122 
DISL,ioos:station:DISL:KATA:1,2014-10-01T19:30:00Z,30.2583,-88.2131,3.919,26.06,1111122 
DISL,ioos:station:DISL:KATA:1,2014-10-01T20:00:00Z,30.2583,-88.2131,3.924,26.14,1111122 
DISL,ioos:station:DISL:KATA:1,2014-10-01T20:30:00Z,30.2583,-88.2131,3.933,26.18,1111122 
DISL,ioos:station:DISL:KATA:1,2014-10-01T21:00:00Z,30.2583,-88.2131,3.943,26.28,1111122 
DISL,ioos:station:DISL:KATA:1,2014-10-01T21:30:00Z,30.2583,-88.2131,3.975,26.25,1111122 
DISL,ioos:station:DISL:KATA:1,2014-10-01T22:00:00Z,30.2583,-88.2131,3.996,26.27,1111122 
DISL,ioos:station:DISL:KATA:1,2014-10-01T22:30:00Z,30.2583,-88.2131,4.013,26.32,1111122 
DISL,ioos:station:DISL:KATA:1,2014-10-01T23:00:00Z,30.2583,-88.2131,4.022,26.29,1111122 
DISL,ioos:station:DISL:KATA:1,2014-10-01T23:30:00Z,30.2583,-88.2131,4.049,26.3,1111122 
DISL,ioos:station:DISL:KATA:1,2014-10-02T00:00:00Z,30.2583,-88.2131,4.078,26.25,1111122 
DISL,ioos:station:DISL:KATA:1,2014-10-02T00:30:00Z,30.2583,-88.2131,4.098,26.23,1111122 
DISL,ioos:station:DISL:KATA:1,2014-10-02T01:00:00Z,30.2583,-88.2131,4.131,26.23,1111122 
DISL,ioos:station:DISL:KATA:1,2014-10-02T01:30:00Z,30.2583,-88.2131,4.156,26.22,1111122 
DISL,ioos:station:DISL:KATA:1,2014-10-02T02:00:00Z,30.2583,-88.2131,4.168,26.24,1111122 
DISL,ioos:station:DISL:KATA:1,2014-10-02T02:30:00Z,30.2583,-88.2131,4.196,26.25,1111122 
DISL,ioos:station:DISL:KATA:1,2014-10-02T03:00:00Z,30.2583,-88.2131,4.23,26.26,1111122 
DISL,ioos:station:DISL:KATA:1,2014-10-02T03:30:00Z,30.2583,-88.2131,4.259,26.34,1111122 
DISL,ioos:station:DISL:KATA:1,2014-10-02T04:00:00Z,30.2583,-88.2131,4.278,26.37,1111122 
DISL,ioos:station:DISL:KATA:1,2014-10-02T04:30:00Z,30.2583,-88.2131,4.298,26.36,1111122 
DISL,ioos:station:DISL:KATA:1,2014-10-02T05:00:00Z,30.2583,-88.2131,4.316,26.42,1111122 
DISL,ioos:station:DISL:KATA:1,2014-10-02T05:30:00Z,30.2583,-88.2131,4.334,26.43,1111122 
DISL,ioos:station:DISL:KATA:1,2014-10-02T06:00:00Z,30.2583,-88.2131,4.357,26.46,1111122 
DISL,ioos:station:DISL:KATA:1,2014-10-02T06:30:00Z,30.2583,-88.2131,4.369,26.46,1111122 
DISL,ioos:station:DISL:KATA:1,2014-10-02T07:00:00Z,30.2583,-88.2131,4.383,26.47,1111122 
DISL,ioos:station:DISL:KATA:1,2014-10-02T07:30:00Z,30.2583,-88.2131,4.402,26.5,1111122 
DISL,ioos:station:DISL:KATA:1,2014-10-02T08:00:00Z,30.2583,-88.2131,4.413,26.54,1111122 
DISL,ioos:station:DISL:KATA:1,2014-10-02T08:30:00Z,30.2583,-88.2131,4.417,26.53,1111122 
DISL,ioos:station:DISL:KATA:1,2014-10-02T09:00:00Z,30.2583,-88.2131,4.411,26.55,1111122 
DISL,ioos:station:DISL:KATA:1,2014-10-02T09:30:00Z,30.2583,-88.2131,4.385,26.56,1111122 
DISL,ioos:station:DISL:KATA:1,2014-10-02T10:00:00Z,30.2583,-88.2131,4.366,26.6,1111122 
DISL,ioos:station:DISL:KATA:1,2014-10-02T10:30:00Z,30.2583,-88.2131,4.351,26.52,1111122 
DISL,ioos:station:DISL:KATA:1,2014-10-02T11:00:00Z,30.2583,-88.2131,4.332,26.49,1111122 
DISL,ioos:station:DISL:KATA:1,2014-10-02T11:30:00Z,30.2583,-88.2131,4.321,26.51,1111122 
DISL,ioos:station:DISL:KATA:1,2014-10-02T12:00:00Z,30.2583,-88.2131,4.313,26.56,1111122 
DISL,ioos:station:DISL:KATA:1,2014-10-02T12:30:00Z,30.2583,-88.2131,4.293,26.5,1111122 
DISL,ioos:station:DISL:KATA:1,2014-10-02T13:00:00Z,30.2583,-88.2131,4.266,26.47,1111122 
DISL,ioos:station:DISL:KATA:1,2014-10-02T13:30:00Z,30.2583,-88.2131,4.238,26.47,1111122 
DISL,ioos:station:DISL:KATA:1,2014-10-02T14:00:00Z,30.2583,-88.2131,4.202,26.4,1111122 
DISL,ioos:station:DISL:KATA:1,2014-10-02T14:30:00Z,30.2583,-88.2131,4.155,26.33,1111122 
DISL,ioos:station:DISL:KATA:1,2014-10-02T15:00:00Z,30.2583,-88.2131,4.11,26.34,1111122 
DISL,ioos:station:DISL:KATA:1,2014-10-02T15:30:00Z,30.2583,-88.2131,4.067,26.19,1111122 
DISL,ioos:station:DISL:KATA:1,2014-10-02T16:00:00Z,30.2583,-88.2131,4.034,26.24,1111122 
DISL,ioos:station:DISL:KATA:1,2014-10-02T16:30:00Z,30.2583,-88.2131,3.996,26.07,1111122 
DISL,ioos:station:DISL:KATA:1,2014-10-02T17:00:00Z,30.2583,-88.2131,3.964,25.99,1111122 
DISL,ioos:station:DISL:KATA:1,2014-10-02T17:30:00Z,30.2583,-88.2131,3.947,26.03,1111122 
DISL,ioos:station:DISL:KATA:1,2014-10-02T18:00:00Z,30.2583,-88.2131,3.929,26.22,1111122 
DISL,ioos:station:DISL:KATA:1,2014-10-02T18:30:00Z,30.2583,-88.2131,3.911,26.35,1111122 
DISL,ioos:station:DISL:KATA:1,2014-10-02T19:00:00Z,30.2583,-88.2131,3.906,26.36,1111122 
DISL,ioos:station:DISL:KATA:1,2014-10-02T19:30:00Z,30.2583,-88.2131,3.887,26.38,1111122 
DISL,ioos:station:DISL:KATA:1,2014-10-02T20:00:00Z,30.2583,-88.2131,3.883,26.23,1111122 
DISL,ioos:station:DISL:KATA:1,2014-10-02T20:30:00Z,30.2583,-88.2131,3.881,26.31,1111122 
DISL,ioos:station:DISL:KATA:1,2014-10-02T21:00:00Z,30.2583,-88.2131,3.876,26.25,1111122 
DISL,ioos:station:DISL:KATA:1,2014-10-02T21:30:00Z,30.2583,-88.2131,3.889,26.17,1111122 
DISL,ioos:station:DISL:KATA:1,2014-10-02T22:00:00Z,30.2583,-88.2131,3.915,26.22,1111122 
DISL,ioos:station:DISL:KATA:1,2014-10-02T22:30:00Z,30.2583,-88.2131,3.939,26.21,1111122 
DISL,ioos:station:DISL:KATA:1,2014-10-02T23:00:00Z,30.2583,-88.2131,3.962,26.28,1111122 
DISL,ioos:station:DISL:KATA:1,2014-10-02T23:30:00Z,30.2583,-88.2131,3.988,26.44,1111122 
DISL,ioos:station:DISL:KATA:1,2014-10-03T00:00:00Z,30.2583,-88.2131,4.012,26.44,1111122 
DISL,ioos:station:DISL:KATA:1,2014-10-03T00:30:00Z,30.2583,-88.2131,4.033,26.28,1111122 
DISL,ioos:station:DISL:KATA:1,2014-10-03T01:00:00Z,30.2583,-88.2131,4.065,26.17,1111122 
DISL,ioos:station:DISL:KATA:1,2014-10-03T01:30:00Z,30.2583,-88.2131,4.095,26.12,1111122 
DISL,ioos:station:DISL:KATA:1,2014-10-03T02:00:00Z,30.2583,-88.2131,4.13,26.12,1111122 
DISL,ioos:station:DISL:KATA:1,2014-10-03T02:30:00Z,30.2583,-88.2131,4.156,26.15,1111122 
DISL,ioos:station:DISL:KATA:1,2014-10-03T03:00:00Z,30.2583,-88.2131,4.184,26.13,1111122 
DISL,ioos:station:DISL:KATA:1,2014-10-03T03:30:00Z,30.2583,-88.2131,4.191,26.05,1111122 
DISL,ioos:station:DISL:KATA:1,2014-10-03T04:00:00Z,30.2583,-88.2131,4.211,25.92,1111122 
DISL,ioos:station:DISL:KATA:1,2014-10-03T04:30:00Z,30.2583,-88.2131,4.225,26.03,1111122 
DISL,ioos:station:DISL:KATA:1,2014-10-03T05:00:00Z,30.2583,-88.2131,4.248,25.91,1111122 
DISL,ioos:station:DISL:KATA:1,2014-10-03T05:30:00Z,30.2583,-88.2131,4.27,25.85,1111122 
DISL,ioos:station:DISL:KATA:1,2014-10-03T06:00:00Z,30.2583,-88.2131,4.296,25.88,1111122 
DISL,ioos:station:DISL:KATA:1,2014-10-03T06:30:00Z,30.2583,-88.2131,4.326,25.76,1111122 
DISL,ioos:station:DISL:KATA:1,2014-10-03T07:00:00Z,30.2583,-88.2131,4.343,25.58,1111122 
DISL,ioos:station:DISL:KATA:1,2014-10-03T07:30:00Z,30.2583,-88.2131,4.362,25.68,1111122 
DISL,ioos:station:DISL:KATA:1,2014-10-03T08:00:00Z,30.2583,-88.2131,4.376,25.7,1111122 
DISL,ioos:station:DISL:KATA:1,2014-10-03T08:30:00Z,30.2583,-88.2131,4.386,25.81,1111122 
DISL,ioos:station:DISL:KATA:1,2014-10-03T09:00:00Z,30.2583,-88.2131,4.395,25.88,1111122 
DISL,ioos:station:DISL:KATA:1,2014-10-03T09:30:00Z,30.2583,-88.2131,4.399,25.49,1111122 
DISL,ioos:station:DISL:KATA:1,2014-10-03T10:00:00Z,30.2583,-88.2131,4.4,26.13,1111122 
DISL,ioos:station:DISL:KATA:1,2014-10-03T10:30:00Z,30.2583,-88.2131,4.393,26.2,1111122 
DISL,ioos:station:DISL:KATA:1,2014-10-03T11:00:00Z,30.2583,-88.2131,4.382,26.31,1111122 
DISL,ioos:station:DISL:KATA:1,2014-10-03T11:30:00Z,30.2583,-88.2131,4.372,25.68,1111122 
DISL,ioos:station:DISL:KATA:1,2014-10-03T12:00:00Z,30.2583,-88.2131,4.363,26.34,1111122 
DISL,ioos:station:DISL:KATA:1,2014-10-03T12:30:00Z,30.2583,-88.2131,4.359,26.33,1111122 
DISL,ioos:station:DISL:KATA:1,2014-10-03T13:00:00Z,30.2583,-88.2131,4.44,26.29,1111122 
DISL,ioos:station:DISL:KATA:1,2014-10-03T13:30:00Z,30.2583,-88.2131,4.348,26.33,1111122 
DISL,ioos:station:DISL:KATA:1,2014-10-03T14:00:00Z,30.2583,-88.2131,4.287,26.24,1111122 
DISL,ioos:station:DISL:KATA:1,2014-10-03T14:30:00Z,30.2583,-88.2131,4.248,26.07,1111122 
DISL,ioos:station:DISL:KATA:1,2014-10-03T15:00:00Z,30.2583,-88.2131,4.206,25.87,1111122 
DISL,ioos:station:DISL:KATA:1,2014-10-03T15:30:00Z,30.2583,-88.2131,4.163,25.85,1111122 
DISL,ioos:station:DISL:KATA:1,2014-10-03T16:00:00Z,30.2583,-88.2131,4.127,25.89,1111122 
DISL,ioos:station:DISL:KATA:1,2014-10-03T16:30:00Z,30.2583,-88.2131,4.055,25.74,1111122 
DISL,ioos:station:DISL:KATA:1,2014-10-03T17:00:00Z,30.2583,-88.2131,4.006,25.69,1111122 
DISL,ioos:station:DISL:KATA:1,2014-10-03T17:30:00Z,30.2583,-88.2131,3.982,25.69,1111122 
DISL,ioos:station:DISL:KATA:1,2014-10-03T18:00:00Z,30.2583,-88.2131,3.967,25.8,1111122 
DISL,ioos:station:DISL:KATA:1,2014-10-03T18:30:00Z,30.2583,-88.2131,3.961,25.81,1111122 
DISL,ioos:station:DISL:KATA:1,2014-10-03T19:00:00Z,30.2583,-88.2131,3.988,25.74,1111122 
DISL,ioos:station:DISL:KATA:1,2014-10-03T19:30:00Z,30.2583,-88.2131,4.002,25.68,1111122 
DISL,ioos:station:DISL:KATA:1,2014-10-03T20:00:00Z,30.2583,-88.2131,4.014,25.68,1111122 
DISL,ioos:station:DISL:KATA:1,2014-10-03T20:30:00Z,30.2583,-88.2131,4.002,25.68,1111122 
DISL,ioos:station:DISL:KATA:1,2014-10-03T21:00:00Z,30.2583,-88.2131,3.94,25.6,1111122 
DISL,ioos:station:DISL:KATA:1,2014-10-03T21:30:00Z,30.2583,-88.2131,3.893,25.52,1111122 
DISL,ioos:station:DISL:KATA:1,2014-10-03T22:00:00Z,30.2583,-88.2131,3.827,25.01,1111122 
DISL,ioos:station:DISL:KATA:1,2014-10-03T22:30:00Z,30.2583,-88.2131,3.794,24.29,1111122 
DISL,ioos:station:DISL:KATA:1,2014-10-03T23:00:00Z,30.2583,-88.2131,3.81,24.92,1111122 
DISL,ioos:station:DISL:KATA:1,2014-10-03T23:30:00Z,30.2583,-88.2131,3.841,25.25,1111122 
DISL,ioos:station:DISL:KATA:1,2014-10-04T00:00:00Z,30.2583,-88.2131,3.923,25.37,1111122 
DISL,ioos:station:DISL:KATA:1,2014-10-04T00:30:00Z,30.2583,-88.2131,3.964,25.23,1111122 
DISL,ioos:station:DISL:KATA:1,2014-10-04T01:00:00Z,30.2583,-88.2131,3.981,25.35,1111122 
DISL,ioos:station:DISL:KATA:1,2014-10-04T01:30:00Z,30.2583,-88.2131,4.016,25.51,1111122 
DISL,ioos:station:DISL:KATA:1,2014-10-04T02:00:00Z,30.2583,-88.2131,4.021,25.49,1111122 
DISL,ioos:station:DISL:KATA:1,2014-10-04T02:30:00Z,30.2583,-88.2131,4.061,25.5,1111122 
DISL,ioos:station:DISL:KATA:1,2014-10-04T03:00:00Z,30.2583,-88.2131,4.083,25.58,1111122 
DISL,ioos:station:DISL:KATA:1,2014-10-04T03:30:00Z,30.2583,-88.2131,4.104,25.54,1111122 
DISL,ioos:station:DISL:KATA:1,2014-10-04T04:00:00Z,30.2583,-88.2131,4.116,25.56,1111122 
DISL,ioos:station:DISL:KATA:1,2014-10-04T04:30:00Z,30.2583,-88.2131,4.117,25.56,1111122 
DISL,ioos:station:DISL:KATA:1,2014-10-04T05:00:00Z,30.2583,-88.2131,4.121,25.53,1111122 
DISL,ioos:station:DISL:KATA:1,2014-10-04T05:30:00Z,30.2583,-88.2131,4.084,25.39,1111122 
DISL,ioos:station:DISL:KATA:1,2014-10-04T06:00:00Z,30.2583,-88.2131,4.055,25.36,1111122 
DISL,ioos:station:DISL:KATA:1,2014-10-04T06:30:00Z,30.2583,-88.2131,4.027,25.38,1111122 
DISL,ioos:station:DISL:KATA:1,2014-10-04T07:00:00Z,30.2583,-88.2131,4.039,25.36,1111122 
DISL,ioos:station:DISL:KATA:1,2014-10-04T07:30:00Z,30.2583,-88.2131,4.074,25.43,1111122 
DISL,ioos:station:DISL:KATA:1,2014-10-04T08:00:00Z,30.2583,-88.2131,4.114,25.41,1111122 
DISL,ioos:station:DISL:KATA:1,2014-10-04T08:30:00Z,30.2583,-88.2131,4.144,25.38,1111122 
DISL,ioos:station:DISL:KATA:1,2014-10-04T09:00:00Z,30.2583,-88.2131,4.18,25.54,1111122 
DISL,ioos:station:DISL:KATA:1,2014-10-04T09:30:00Z,30.2583,-88.2131,4.205,25.45,1111122 
DISL,ioos:station:DISL:KATA:1,2014-10-04T10:00:00Z,30.2583,-88.2131,4.21,25.46,1111122 
DISL,ioos:station:DISL:KATA:1,2014-10-04T10:30:00Z,30.2583,-88.2131,4.234,25.38,1111122 
DISL,ioos:station:DISL:KATA:1,2014-10-04T11:00:00Z,30.2583,-88.2131,4.243,25.18,1111122 
DISL,ioos:station:DISL:KATA:1,2014-10-04T11:30:00Z,30.2583,-88.2131,4.208,24.22,1111122 
DISL,ioos:station:DISL:KATA:1,2014-10-04T12:00:00Z,30.2583,-88.2131,4.187,23.84,1111122 
DISL,ioos:station:DISL:KATA:1,2014-10-04T12:30:00Z,30.2583,-88.2131,4.153,23.78,1111122 
DISL,ioos:station:DISL:KATA:1,2014-10-04T13:00:00Z,30.2583,-88.2131,4.111,23.29,1111122 
DISL,ioos:station:DISL:KATA:1,2014-10-04T13:30:00Z,30.2583,-88.2131,4.097,22.79,1111122 
DISL,ioos:station:DISL:KATA:1,2014-10-04T14:00:00Z,30.2583,-88.2131,4.08,22.6,1111122 
DISL,ioos:station:DISL:KATA:1,2014-10-04T14:30:00Z,30.2583,-88.2131,4.075,22.44,1111122 
DISL,ioos:station:DISL:KATA:1,2014-10-04T15:00:00Z,30.2583,-88.2131,4.049,22.38,1111122 
DISL,ioos:station:DISL:KATA:1,2014-10-04T15:30:00Z,30.2583,-88.2131,4.028,22.44,1111122 
DISL,ioos:station:DISL:KATA:1,2014-10-04T16:00:00Z,30.2583,-88.2131,4.024,22.59,1111122 
DISL,ioos:station:DISL:KATA:1,2014-10-04T16:30:00Z,30.2583,-88.2131,4.017,22.54,1111122 
DISL,ioos:station:DISL:KATA:1,2014-10-04T17:00:00Z,30.2583,-88.2131,4.013,22.53,1111122 
DISL,ioos:station:DISL:KATA:1,2014-10-04T17:30:00Z,30.2583,-88.2131,3.985,22.46,1111122 
DISL,ioos:station:DISL:KATA:1,2014-10-04T18:00:00Z,30.2583,-88.2131,3.965,22.53,1111122 
DISL,ioos:station:DISL:KATA:1,2014-10-04T18:30:00Z,30.2583,-88.2131,3.944,22.51,1111122 
DISL,ioos:station:DISL:KATA:1,2014-10-04T19:00:00Z,30.2583,-88.2131,3.923,22.47,1111122 
DISL,ioos:station:DISL:KATA:1,2014-10-04T19:30:00Z,30.2583,-88.2131,3.906,22.49,1111122 
DISL,ioos:station:DISL:KATA:1,2014-10-04T20:00:00Z,30.2583,-88.2131,3.887,22.49,1111122 
DISL,ioos:station:DISL:KATA:1,2014-10-04T20:30:00Z,30.2583,-88.2131,3.869,22.54,1111122 
DISL,ioos:station:DISL:KATA:1,2014-10-04T21:00:00Z,30.2583,-88.2131,3.855,22.52,1111122 
DISL,ioos:station:DISL:KATA:1,2014-10-04T21:30:00Z,30.2583,-88.2131,3.846,22.49,1111122 
DISL,ioos:station:DISL:KATA:1,2014-10-04T22:00:00Z,30.2583,-88.2131,3.857,22.46,1111122 
DISL,ioos:station:DISL:KATA:1,2014-10-04T22:30:00Z,30.2583,-88.2131,3.843,22.52,1111122 
DISL,ioos:station:DISL:KATA:1,2014-10-04T23:00:00Z,30.2583,-88.2131,3.827,22.51,1111122 
DISL,ioos:station:DISL:KATA:1,2014-10-04T23:30:00Z,30.2583,-88.2131,3.822,22.45,1111122 
DISL,ioos:station:DISL:KATA:1,2014-10-05T00:00:00Z,30.2583,-88.2131,3.814,22.33,1111122 
DISL,ioos:station:DISL:KATA:1,2014-10-05T00:30:00Z,30.2583,-88.2131,3.821,22.13,1111122 
DISL,ioos:station:DISL:KATA:1,2014-10-05T01:00:00Z,30.2583,-88.2131,3.843,22.38,1111122 
DISL,ioos:station:DISL:KATA:1,2014-10-05T01:30:00Z,30.2583,-88.2131,3.872,22.44,1111122 
DISL,ioos:station:DISL:KATA:1,2014-10-05T02:00:00Z,30.2583,-88.2131,3.893,22.5,1111122 
DISL,ioos:station:DISL:KATA:1,2014-10-05T02:30:00Z,30.2583,-88.2131,3.924,22.52,1111122 
DISL,ioos:station:DISL:KATA:1,2014-10-05T03:00:00Z,30.2583,-88.2131,3.957,23.28,1111122 
DISL,ioos:station:DISL:KATA:1,2014-10-05T03:30:00Z,30.2583,-88.2131,3.994,23.34,1111122 
DISL,ioos:station:DISL:KATA:1,2014-10-05T04:00:00Z,30.2583,-88.2131,4.013,23.63,1111122 
DISL,ioos:station:DISL:KATA:1,2014-10-05T04:30:00Z,30.2583,-88.2131,4.023,23.73,1111122 
DISL,ioos:station:DISL:KATA:1,2014-10-05T05:00:00Z,30.2583,-88.2131,4.028,23.73,1111122 
DISL,ioos:station:DISL:KATA:1,2014-10-05T05:30:00Z,30.2583,-88.2131,4.024,23.8,1111122 
DISL,ioos:station:DISL:KATA:1,2014-10-05T06:00:00Z,30.2583,-88.2131,4.015,23.32,1111122 
DISL,ioos:station:DISL:KATA:1,2014-10-05T06:30:00Z,30.2583,-88.2131,4.009,23.64,1111122 
DISL,ioos:station:DISL:KATA:1,2014-10-05T07:00:00Z,30.2583,-88.2131,4.004,23.6,1111122 
DISL,ioos:station:DISL:KATA:1,2014-10-05T07:30:00Z,30.2583,-88.2131,3.997,23.61,1111122 
DISL,ioos:station:DISL:KATA:1,2014-10-05T08:00:00Z,30.2583,-88.2131,4.01,23.68,1111122 
DISL,ioos:station:DISL:KATA:1,2014-10-05T08:30:00Z,30.2583,-88.2131,4.036,23.66,1111122 
DISL,ioos:station:DISL:KATA:1,2014-10-05T09:00:00Z,30.2583,-88.2131,4.057,23.67,1111122 
DISL,ioos:station:DISL:KATA:1,2014-10-05T09:30:00Z,30.2583,-88.2131,4.077,23.71,1111122 
DISL,ioos:station:DISL:KATA:1,2014-10-05T10:00:00Z,30.2583,-88.2131,4.097,23.73,1111122 
DISL,ioos:station:DISL:KATA:1,2014-10-05T10:30:00Z,30.2583,-88.2131,4.102,23.78,1111122 
DISL,ioos:station:DISL:KATA:1,2014-10-05T11:00:00Z,30.2583,-88.2131,4.104,23.7,1111122 
DISL,ioos:station:DISL:KATA:1,2014-10-05T11:30:00Z,30.2583,-88.2131,4.107,23.88,1111122 
DISL,ioos:station:DISL:KATA:1,2014-10-05T12:00:00Z,30.2583,-88.2131,4.106,23.87,1111122 
DISL,ioos:station:DISL:KATA:1,2014-10-05T12:30:00Z,30.2583,-88.2131,4.104,23.89,1111122 
DISL,ioos:station:DISL:KATA:1,2014-10-05T13:00:00Z,30.2583,-88.2131,4.106,23.76,1111122 
DISL,ioos:station:DISL:KATA:1,2014-10-05T13:30:00Z,30.2583,-88.2131,4.105,23.65,1111122 
DISL,ioos:station:DISL:KATA:1,2014-10-05T14:00:00Z,30.2583,-88.2131,4.118,23.5,1111122 
DISL,ioos:station:DISL:KATA:1,2014-10-05T14:30:00Z,30.2583,-88.2131,4.135,23.43,1111122 
DISL,ioos:station:DISL:KATA:1,2014-10-05T15:00:00Z,30.2583,-88.2131,4.144,23.4,1111122 
DISL,ioos:station:DISL:KATA:1,2014-10-05T15:30:00Z,30.2583,-88.2131,4.141,23.42,1111122 
DISL,ioos:station:DISL:KATA:1,2014-10-05T16:00:00Z,30.2583,-88.2131,4.126,23.43,1111122 
DISL,ioos:station:DISL:KATA:1,2014-10-05T16:30:00Z,30.2583,-88.2131,4.101,23.43,1111122 
DISL,ioos:station:DISL:KATA:1,2014-10-05T17:00:00Z,30.2583,-88.2131,4.066,23.49,1111122 
DISL,ioos:station:DISL:KATA:1,2014-10-05T17:30:00Z,30.2583,-88.2131,4.036,23.52,1111122 
DISL,ioos:station:DISL:KATA:1,2014-10-05T18:00:00Z,30.2583,-88.2131,3.996,23.54,1111122 
DISL,ioos:station:DISL:KATA:1,2014-10-05T18:30:00Z,30.2583,-88.2131,3.952,23.59,1111122 
DISL,ioos:station:DISL:KATA:1,2014-10-05T19:00:00Z,30.2583,-88.2131,3.918,23.62,1111122 
DISL,ioos:station:DISL:KATA:1,2014-10-05T19:30:00Z,30.2583,-88.2131,3.894,23.64,1111122 
DISL,ioos:station:DISL:KATA:1,2014-10-05T20:00:00Z,30.2583,-88.2131,3.873,23.63,1111122 
DISL,ioos:station:DISL:KATA:1,2014-10-05T20:30:00Z,30.2583,-88.2131,3.863,23.57,1111122 
DISL,ioos:station:DISL:KATA:1,2014-10-05T21:00:00Z,30.2583,-88.2131,3.864,23.39,1111122 
DISL,ioos:station:DISL:KATA:1,2014-10-05T21:30:00Z,30.2583,-88.2131,3.865,23.35,1111122 
DISL,ioos:station:DISL:KATA:1,2014-10-05T22:00:00Z,30.2583,-88.2131,3.87,23.36,1111122 
DISL,ioos:station:DISL:KATA:1,2014-10-05T22:30:00Z,30.2583,-88.2131,3.877,23.3,1111122 
DISL,ioos:station:DISL:KATA:1,2014-10-05T23:00:00Z,30.2583,-88.2131,3.877,23.32,1111122 
DISL,ioos:station:DISL:KATA:1,2014-10-05T23:30:00Z,30.2583,-88.2131,3.882,23.37,1111122 
DISL,ioos:station:DISL:KATA:1,2014-10-06T00:00:00Z,30.2583,-88.2131,3.882,23.44,1111122 
DISL,ioos:station:DISL:KATA:1,2014-10-06T00:30:00Z,30.2583,-88.2131,3.882,23.59,1111122 
DISL,ioos:station:DISL:KATA:1,2014-10-06T01:00:00Z,30.2583,-88.2131,3.893,23.57,1111122 
DISL,ioos:station:DISL:KATA:1,2014-10-06T01:30:00Z,30.2583,-88.2131,3.908,23.55,1111122 
DISL,ioos:station:DISL:KATA:1,2014-10-06T02:00:00Z,30.2583,-88.2131,3.925,23.45,1111122 
DISL,ioos:station:DISL:KATA:1,2014-10-06T02:30:00Z,30.2583,-88.2131,3.954,23.47,1111122 
DISL,ioos:station:DISL:KATA:1,2014-10-06T03:00:00Z,30.2583,-88.2131,3.976,23.24,1111122 
DISL,ioos:station:DISL:KATA:1,2014-10-06T03:30:00Z,30.2583,-88.2131,4.003,23.48,1111122 
DISL,ioos:station:DISL:KATA:1,2014-10-06T04:00:00Z,30.2583,-88.2131,4.025,23.49,1111122 
DISL,ioos:station:DISL:KATA:1,2014-10-06T04:30:00Z,30.2583,-88.2131,4.039,23.43,1111122 
DISL,ioos:station:DISL:KATA:1,2014-10-06T05:00:00Z,30.2583,-88.2131,4.044,23.39,1111122 
DISL,ioos:station:DISL:KATA:1,2014-10-06T05:30:00Z,30.2583,-88.2131,4.035,23.43,1111122 
DISL,ioos:station:DISL:KATA:1,2014-10-06T06:00:00Z,30.2583,-88.2131,4.013,23.37,1111122 
DISL,ioos:station:DISL:KATA:1,2014-10-06T06:30:00Z,30.2583,-88.2131,3.985,23.35,1111122 
DISL,ioos:station:DISL:KATA:1,2014-10-06T07:00:00Z,30.2583,-88.2131,3.96,23.56,1111122 
DISL,ioos:station:DISL:KATA:1,2014-10-06T07:30:00Z,30.2583,-88.2131,3.949,23.67,1111122 
DISL,ioos:station:DISL:KATA:1,2014-10-06T08:00:00Z,30.2583,-88.2131,3.959,23.69,1111122 
DISL,ioos:station:DISL:KATA:1,2014-10-06T08:30:00Z,30.2583,-88.2131,3.972,23.81,1111122 
DISL,ioos:station:DISL:KATA:1,2014-10-06T09:00:00Z,30.2583,-88.2131,3.989,23.82,1111122 
DISL,ioos:station:DISL:KATA:1,2014-10-06T09:30:00Z,30.2583,-88.2131,4.02,23.81,1111122 
DISL,ioos:station:DISL:KATA:1,2014-10-06T10:00:00Z,30.2583,-88.2131,4.049,23.8,1111122 
DISL,ioos:station:DISL:KATA:1,2014-10-06T10:30:00Z,30.2583,-88.2131,4.068,23.8,1111122 
DISL,ioos:station:DISL:KATA:1,2014-10-06T11:00:00Z,30.2583,-88.2131,4.084,23.83,1111122 
DISL,ioos:station:DISL:KATA:1,2014-10-06T11:30:00Z,30.2583,-88.2131,4.104,23.77,1111122 
DISL,ioos:station:DISL:KATA:1,2014-10-06T12:00:00Z,30.2583,-88.2131,4.107,23.8,1111122 
DISL,ioos:station:DISL:KATA:1,2014-10-06T12:30:00Z,30.2583,-88.2131,4.121,23.81,1111122 
DISL,ioos:station:DISL:KATA:1,2014-10-06T13:00:00Z,30.2583,-88.2131,4.14,23.8,1111122 
DISL,ioos:station:DISL:KATA:1,2014-10-06T13:30:00Z,30.2583,-88.2131,4.152,23.81,1111122 
DISL,ioos:station:DISL:KATA:1,2014-10-06T14:00:00Z,30.2583,-88.2131,4.161,23.76,1111122 